Find Starlink 34617

NORAD ID: 65015 Int'l Des: 2025-161 Owner: SPXS Country: US Constellation: starlink operational
LEOCIRCULAR

当前视图

正在加载3D地球...

About Starlink 34617

Starlink 34617 (NORAD 65015) is a starlink constellation satellite (v2 mini) launched Jul 30, 2025 by SPXS of US. It operates in LEO, CIRCULAR orbit with a mass of 575.00 kg.

即将过境

Passes for default location (London). Set your location on the main map for personalized predictions.

高度历史

Loading altitude history...

两行轨道根数

1 65015U 25161A 26264.17456497 .00122961 00000-0 79366-3 0 9990
2 65015 53.1575 72.0034 0000942 80.9216 279.1911 15.75268707 22970
Epoch: Sep 21, 2026 • Age: 11 hours

当前状态

高度 345.4 km
远地点 / 近地点 N/A
速度 7.71 km/s
星下点 33.17°N, 11.38°W
发射日期 Jul 30, 2025
运行时间 1.1 years
类型 internet

技术详情

分类 Payload
质量 575.00 kg
干质量 530.00 kg
长度 0.30 m
跨度 29.00 m
形状 ? Box + pan
制造商 SPXS
平台类型 Starlink V2MO
阶段状态 In Orbit
所有者/国家 SPXS/US

Most Searched